Regional Weather Roundup
Issued by NWS

Home | Current Version | Previous Version | Graphics & Text | Print | Product List | Glossary On
Versions: 1 2 3 4 5 6 7 8 9 10 11 12 13 14 15 16 17 18 19 20 21 22 23 24 25 26 27 28 29 30 31 32 33 34 35 36 37 38 39 40 41 42 43 44 45 46 47 48 49 50
000
ASUS43 KDMX 052007
RWRIA

WEATHER ROUNDUP FOR IOWA
NATIONAL WEATHER SERVICE DES MOINES IA
300 PM CDT SUN JUL 05 2015

NOTE: "FAIR" INDICATES FEW OR NO CLOUDS BELOW 12,000 FEET WITH NO
SIGNIFICANT WEATHER AND/OR OBSTRUCTIONS TO VISIBILITY.

* - THESE STATIONS ARE NOT NWS STATIONS...THUS NOT UNDER NWS
QUALITY CONTROL.  THEY ALSO DO NOT REPORT WEATHER SUCH
AS PRECIPITATION OR FOG.

IAZ001>003-012>014-020>022-031>034-043>046-052100-
   NORTHWEST IOWA

CITY           SKY/WX    TMP DP  RH WIND       PRES   REMARKS
CARROLL *      SUNNY     86  70  58 S20       29.89S HX  90
CHEROKEE *     SUNNY     84  73  70 S18G24    29.85F HX  91
DENISON *      SUNNY     84  73  70 S15G25    29.85F HX  91
LE MARS *      SUNNY     86  73  66 S18       29.82F HX  93
ORANGE CITY *  SUNNY     84  72  65 S17G23    29.84S HX  89
SHELDON *      SUNNY     86  72  62 S18       29.83S HX  92
SIOUX CITY     MOSUNNY   86  72  62 SE17G24   29.81F HX  92
SPENCER        MOSUNNY   88  70  55 S22G28    29.86S HX  93
STORM LAKE *   MOSUNNY   84  72  65 S18G25    29.89S HX  89
$$

IAZ055>058-069>071-079>083-090>094-052100-
   SOUTHWEST IOWA

CITY           SKY/WX    TMP DP  RH WIND       PRES   REMARKS
ATLANTIC *     SUNNY     82  72  69 S12       29.90S HX  87
AUDUBON *      SUNNY     84  72  65 S15G21    29.92S HX  89
CLARINDA *     SUNNY     90  72  55 S13G21    29.90F HX  96
COUNCIL BLFS * SUNNY     86  73  66 S21       29.87F HX  93
CRESTON *      SUNNY     86  70  58 S16G24    29.92F HX  90
HARLAN  *      SUNNY     84  77  79 S15G25    29.92F HX  94
LAMONI         MOSUNNY   87  70  56 SE13G20   29.95S HX  92
RED OAK *      SUNNY     86  70  58 S20       29.88S HX  90
SHENANDOAH *   MOSUNNY   88  73  62 S21       29.88S HX  96
$$

IAZ047>049-059>061-072>074-084-052100-
   CENTRAL IOWA

CITY           SKY/WX    TMP DP  RH WIND       PRES   REMARKS
AMES           PTSUNNY   83  70  64 S15G23    29.93S HX  87
ANKENY *       SUNNY     84  73  70 SE14      29.93S HX  91
CHARITON *     SUNNY     84  70  61 S14G21    29.96S HX  88
DES MOINES     PTSUNNY   86  69  56 S14       29.93S HX  90
GRINNELL*      PTSUNNY   81  68  65 SE12      29.98S HX  83
KNOXVILLE *    MOSUNNY   84  68  58 S13       29.95S HX  87
MARSHALLTOWN   CLOUDY    83  70  64 SE16      29.95S HX  87
PELLA *        CLOUDY    84  72  65 SE9       29.97F HX  89
PERRY *          N/A     84  70  61 S13       29.91F HX  88
$$

IAZ004>006-015-016-023>025-035-036-052100-
   NORTH CENTRAL IOWA

CITY           SKY/WX    TMP DP  RH WIND       PRES   REMARKS
ALGONA *       SUNNY     84  70  61 S18G24    29.90S HX  88
CLARION *      SUNNY     84  72  65 S14G21    29.92S HX  89
ESTHERVILLE    PTSUNNY   83  72  69 S18G28    29.88S HX  88
FORT DODGE *   PTSUNNY   84  70  61 S14G20    29.92R HX  88
MASON CITY     PTSUNNY   85  70  60 S17G23    29.94S HX  89
FOREST CITY *  SUNNY     81  68  65 S15G21    29.92S HX  83
IOWA FALLS *     N/A     82  70  65 SE13      29.95S HX  86
$$

IAZ007>011-017>019-026>030-037>042-050>054-066-052100-
   NORTHEAST IOWA

CITY           SKY/WX    TMP DP  RH WIND       PRES   REMARKS
CEDAR RAPIDS   PTSUNNY   81  68  64 S9        29.99S HX  84
CHARLES CITY * SUNNY     82  72  69 S14       29.96S HX  87
CLINTON *      SUNNY     82  64  54 S10G17    30.04F HX  84
DECORAH *        N/A    N/A N/A N/A MISG        N/A
DUBUQUE        MOSUNNY   80  66  62 S12       30.02F HX  82
MONTICELLO *   MOSUNNY   81  68  65 S13       30.00S HX  83
OELWEIN *      SUNNY     79  68  69 S12G17    29.99F HX  81
WATERLOO       PTSUNNY   82  65  56 S13       29.95F HX  84
$$

IAZ064-065-067-068-078-052100-
   EAST CENTRAL IOWA

CITY           SKY/WX    TMP DP  RH WIND       PRES   REMARKS
DAVENPORT      SUNNY     82  65  56 S9        30.01F HX  84
IOWA CITY      PTSUNNY   82  68  62 SE10      30.00F HX  85
MT. PLEASANT * PTSUNNY   84  64  51 S8        29.99F HX  86
MUSCATINE *    SUNNY     84  66  54 S10G18    30.00S HX  86
QUAD CITIES    SUNNY     82  65  56 S9        30.01F HX  84
$$

IAZ062-063-075>077-085>089-095>099-052100-
   SOUTHEAST IOWA

CITY           SKY/WX    TMP DP  RH WIND       PRES   REMARKS
BURLINGTON     MOSUNNY   84  70  62 S8G16     30.00F HX  88
FAIRFIELD *    MOSUNNY   84  66  54 S10G16    29.98F HX  86
FORT MADISON * MOSUNNY   82  70  65 S10       30.01S HX  86
KEOKUK *       MOSUNNY   84  70  61 S8G16     29.99F HX  88
OSKALOOSA *      N/A     82  68  61 S6        29.98S HX  85
CENTERVILLE *  SUNNY     82  68  61 S13       29.99F HX  85
OTTUMWA        PTSUNNY   84  70  62 S9        29.96S HX  88
WASHINGTON *   MOSUNNY   82  72  69 S6G13     30.00F HX  87
$$

ABBREVIATIONS USED IN REMARKS
   TC - TEMPERATURES IN CELSIUS
  WCI - WIND CHILL INDEX
   HX - HEAT INDEX
  VSB - VISIBILITY
$$



USA.gov is the U.S. government's official web portal to all federal, state and local government web resources and services.